FENGYUN 1C DEB, 41826

Orbit data source: Space-Track

FENGYUN 1C DEB, 41826 is space debris in SSO originally from a launch on Mon, 10 May 1999 UTC launched from the Taiyaun Space Center, China (TSC). Fengyun 1C debris stems from the Chinese weather satellite Fengyun-1C, which was intentionally destroyed by a Chinese anti-satellite missile in 2007. This event dramatically increased the amount of space debris, with thousands of trackable fragments posing hazards to satellites and human spaceflight. The Fengyun 1C debris cloud has become a focal point in discussions about space sustainability and the need for international regulations to prevent the creation of new debris.

Loading next visibility...
Identifier
41826, 1999-025EYD
Orbit
SSO
Country
Flag of CNCN / PRC
Related business
Manufacturer
Unknown
Mission
Spacecraft
Bus & Motor
Unknown
Mass
Unknown
Launch date (UTC)
1999-05-10 (27 years ago)
Launch vehicle
Unknown
Launch site
Taiyaun Space Center, China (TSC)
Object type
Payload
Rocket body
Debris
Shape & HBR
Unknown shape, 0.1 m
Radar Cross Section
Small (<0.1 m²)

Expand to show TLE details & history
Last TLE update: 1 week ago

TLE from 1 week ago
0 FENGYUN 1C DEB
1 41826U 99025EYD 26154.40414656  .00003002  00000-0  12846-2 0  9992
2 41826  98.7180 223.9996 0056069  85.5099 275.2482 14.24808711498184
Epoch: 2026-06-03T09:41Z
TLE epoch observation values (Epoch: 2026-06-03T09:41:58.262Z)
Latitude
-0.0001°
Longitude
-173.3564°
Altitude
808.594 km
Speed
7.451 km/s
True Right ascension
14h 55m 59s
True Declination
0° 00' 00"
Sunlit
Object was in full shadow at epoch
Visualization orbit readout
Latitude
Unknown
Longitude
Unknown
Altitude
Unknown
Speed
Unknown
Apparent Right ascension
Unknown
Apparent Declination
Unknown
Sunlit
N/A
Visualization observer readout
Local Sidereal Time
00:45:06
Azimuth
Unknown
Elevation
Unknown
Doppler factor
Unknown
Orbital elements
Apogee altitude
846.571 km
Perigee altitude
766.006 km
Semi-major axis
7,184.425 km
Eccentricity
0.00561
Inclination
98.718°
RAAN
223.9996°
Arg. of periapsis
85.5099°
True anomaly
274.60799°
Mean anomaly
275.2482°
Eccentric anomaly
274.92814°
Mean motion
3.56414 °/min
Orbital period
101.01 mins
BSTAR
0.0012846
Loading maneuver chart data...
Computing Atmospheric mass density...
Loading historical data...
Loading historical data...
Loading historical data...
Loading historical data...
Loading historical data...
Loading historical data...
Loading historical data...

Documentation

Showing up to 5 results
|